Weather History for KMTN - October, 2012

Change the Weather History Date:

Sunday, October 14, 2012

  Actual Average Record
Temperature  
Mean Temperature 62 °F -  
Max Temperature 71 °F 63 °F 78 °F (2000)
Min Temperature 53 °F 47 °F 35 °F (2006)
Degree Days  
Heating Degree Days 3    
Growing Degree Days 12 (Base 50)    
Moisture  
Dew Point 50 °F    
Average Humidity 73    
Maximum Humidity 83    
Minimum Humidity 57    
Precipitation  
Precipitation 0.00 in - - ()
Sea Level Pressure  
Sea Level Pressure 30.19 in    
Wind  
Wind Speed 10 mph (SSE)    
Max Wind Speed 16 mph    
Max Gust Speed 20 mph    
Visibility 10 miles    
Events      
Averages and records for this station are not official NWS values.
T = Trace of Precipitation, MM = Missing Value Source: NWS Daily Summary

Daily Weather History Graph

Daily Weather History Graph

Search for Another Location

Airport or City:

Trip Planner

Search our weather history database for the weather conditions in past years. The results will help you decide how hot, cold, wet, or windy it might be!

Date:

Astronomy

Oct. 14, 2012 Rise Set
Actual Time 7:14 AM EDT 6:27 PM EDT
Civil Twilight 6:47 AM EDT 6:54 PM EDT
Nautical Twilight 6:16 AM EDT 7:25 PM EDT
Astronomical Twilight 5:45 AM EDT 7:56 PM EDT
Moon 6:11 AM EDT (10/14) 5:46 PM EDT (10/14)
Length of Visible Light 12h 06m
Length of Day
11h 12m
Waning Crescent, 1% of the Moon is Illuminated
Oct 14
Waning Crescent
Oct 15
New
Oct 21
First Quarter
Oct 29
Full
Nov 6
Last Quarter

Hourly Weather History & Observations

Time (EDT) Temp. Dew Point Humidity Pressure Visibility Wind Dir Wind Speed Gust Speed Precip Events Conditions
12:03 AM 53.6 °F 41.0 °F 62% 30.32 in 10.0 mi South 8.1 mph - N/A   Clear
12:24 AM 53.6 °F 42.8 °F 67% 30.31 in 10.0 mi South 8.1 mph - N/A   Clear
1:06 AM 55.4 °F 42.8 °F 63% 30.29 in 10.0 mi SSE 10.4 mph - N/A   Clear
1:27 AM 55.4 °F 44.6 °F 67% 30.28 in 10.0 mi SSE 11.5 mph - N/A   Clear
1:48 AM 55.4 °F 46.4 °F 72% 30.28 in 10.0 mi SSE 10.4 mph 16.1 mph N/A   Clear
2:09 AM 55.4 °F 46.4 °F 72% 30.28 in 10.0 mi South 8.1 mph - N/A   Clear
2:30 AM 55.4 °F 46.4 °F 72% 30.28 in 10.0 mi South 6.9 mph - N/A   Clear
2:54 AM 55.4 °F 48.2 °F 77% 30.27 in 10.0 mi South 6.9 mph - N/A   Clear
3:15 AM 55.4 °F 48.2 °F 77% 30.26 in 10.0 mi South 8.1 mph - N/A   Clear
3:36 AM 55.4 °F 46.4 °F 72% 30.24 in 10.0 mi South 8.1 mph - N/A   Clear
3:57 AM 55.4 °F 46.4 °F 72% 30.24 in 10.0 mi South 11.5 mph 16.1 mph N/A   Clear
4:18 AM 55.4 °F 46.4 °F 72% 30.24 in 10.0 mi South 11.5 mph 17.3 mph N/A   Clear
4:39 AM 55.4 °F 46.4 °F 72% 30.24 in 10.0 mi South 8.1 mph - N/A   Clear
5:00 AM 55.4 °F 46.4 °F 72% 30.25 in 10.0 mi South 8.1 mph - N/A   Clear
5:21 AM 55.4 °F 48.2 °F 77% 30.25 in 10.0 mi South 10.4 mph - N/A   Clear
5:33 AM 55.4 °F 48.2 °F 77% 30.25 in 10.0 mi South 9.2 mph - N/A   Clear
5:45 AM 55.4 °F 48.2 °F 77% 30.25 in 10.0 mi South 5.8 mph - N/A   Scattered Clouds
6:50 AM 53.6 °F 48.2 °F 82% 30.24 in 10.0 mi South 5.8 mph - N/A   Mostly Cloudy
7:50 AM 55.4 °F 50.0 °F 82% 30.23 in 10.0 mi South 8.1 mph - N/A   Scattered Clouds
8:50 AM 57.2 °F 50.0 °F 77% 30.24 in 10.0 mi South 9.2 mph - N/A   Scattered Clouds
9:55 AM 59.0 °F 50.0 °F 72% 30.25 in 10.0 mi South 6.9 mph - N/A   Scattered Clouds
10:45 AM 62.6 °F 50.0 °F 63% 30.22 in 10.0 mi South 6.9 mph - N/A   Scattered Clouds
12:45 PM 68.0 °F 57.2 °F 68% 30.17 in 10.0 mi SE 12.7 mph 16.1 mph N/A   Scattered Clouds
1:45 PM 66.2 °F 55.4 °F 68% 30.14 in 10.0 mi SE 16.1 mph - N/A   Mostly Cloudy
3:50 PM 71.6 °F 55.4 °F 57% 30.07 in 10.0 mi SSE 16.1 mph 19.6 mph N/A   Scattered Clouds
4:45 PM 69.8 °F 55.4 °F 60% 30.05 in 10.0 mi SE 13.8 mph - N/A   Scattered Clouds
5:45 PM 66.2 °F 57.2 °F 73% 30.04 in 10.0 mi SSE 13.8 mph - N/A   Scattered Clouds
6:54 PM 66.2 °F 59.0 °F 78% 30.03 in 10.0 mi SSE 15.0 mph - N/A   Partly Cloudy
7:45 PM 66.2 °F 59.0 °F 78% 30.02 in 10.0 mi SSE 11.5 mph - N/A   Scattered Clouds
8:54 PM 66.2 °F 59.0 °F 78% 30.01 in 10.0 mi SSE 11.5 mph - N/A   Scattered Clouds
11:03 PM 66.2 °F 59.0 °F 78% 29.97 in 10.0 mi SSE 12.7 mph 19.6 mph N/A   Clear
11:24 PM 64.4 °F 59.0 °F 83% 29.96 in 10.0 mi SSE 15.0 mph - N/A   Clear
11:48 PM 64.4 °F 59.0 °F 83% 29.96 in 10.0 mi SSE 12.7 mph - N/A   Clear